This is the latest recevied weather packets stored in our database for station/object K7KAZ. If no packets are shown the sender has not sent any weather packets the latest 10 day(s).
| Time | Temp. | Humidity | Pressure | Rain* | Wind** | Luminosity | Snow |
|---|---|---|---|---|---|---|---|
| 1778173537 | 29.44° C | 14% | 1016.1 hPa | 0 mm | - | 782 W/m² | - |
| 1778173234 | 28.89° C | 15% | 1015.9 hPa | 0 mm | - | 911 W/m² | - |
| 1778172930 | 29.44° C | 15% | 1016.2 hPa | 0 mm | - | 829 W/m² | - |
| 1778172627 | 29.44° C | 15% | 1016.3 hPa | 0 mm | - | 750 W/m² | - |
| 1778172323 | 28.89° C | 15% | 1015.9 hPa | 0 mm | - | 734 W/m² | - |
| 1778172020 | 28.89° C | 15% | 1016 hPa | 0 mm | - | 670 W/m² | - |
| 1778171717 | 28.89° C | 15% | 1016.1 hPa | 0 mm | - | 735 W/m² | - |
| 1778171415 | 28.89° C | 15% | 1015.9 hPa | 0 mm | - | 694 W/m² | - |
| 1778171109 | 28.33° C | 16% | 1016.2 hPa | 0 mm | - | 696 W/m² | - |
| 1778170807 | 28.89° C | 15% | 1016.2 hPa | 0 mm | - | 666 W/m² | - |
| 1778170503 | 28.33° C | 16% | 1016.4 hPa | 0 mm | - | 634 W/m² | - |
| 1778170200 | 27.78° C | 16% | 1016.4 hPa | 0 mm | - | 641 W/m² | - |
| 1778169895 | 27.78° C | 16% | 1016.3 hPa | 0 mm | - | 561 W/m² | - |
| 1778169591 | 27.78° C | 16% | 1016.4 hPa | 0 mm | - | 581 W/m² | - |
| 1778169288 | 27.22° C | 16% | 1016.2 hPa | 0 mm | - | 575 W/m² | - |
| 1778168985 | 28.89° C | 16% | 1016.4 hPa | 0 mm | - | 445 W/m² | - |
| 1778168681 | 27.78° C | 16% | 1016.6 hPa | 0 mm | - | 478 W/m² | - |
| 1778168379 | 28.33° C | 16% | 1016.5 hPa | 0 mm | - | 424 W/m² | - |
| 1778168076 | 27.78° C | 16% | 1016.6 hPa | 0 mm | - | 465 W/m² | - |
| 1778167772 | 28.33° C | 18% | 1016.5 hPa | 0 mm | - | 451 W/m² | - |
| 1778167468 | 27.22° C | 20% | 1016.5 hPa | 0 mm | - | 380 W/m² | - |
| 1778167164 | 26.67° C | 21% | 1016.7 hPa | 0 mm | - | 373 W/m² | - |
| 1778166861 | 27.78° C | 19% | 1016.6 hPa | 0 mm | - | 338 W/m² | - |
| 1778166558 | 26.11° C | 23% | 1016.7 hPa | 0 mm | - | 306 W/m² | - |
| 1778166254 | 27.22° C | 25% | 1016.6 hPa | 0 mm | - | 306 W/m² | - |
* Rain latest hour (hover to see other rain measurements)
** Current wind speed in m/s (hover to see current wind gust speed)